TimePST,TemperatureF,Dew PointF,Humidity,Sea Level PressureIn,VisibilityMPH,Wind Direction,Wind SpeedMPH,Gust SpeedMPH,PrecipitationIn,Events,Conditions,WindDirDegrees,DateUTC
12:53 AM,42.1,35.1,76,30.19,10.0,East,3.5,-,N/A,,Clear,90,2013-12-09 08:53:00
1:53 AM,41.0,33.1,73,30.19,10.0,East,4.6,-,N/A,,Clear,80,2013-12-09 09:53:00
2:53 AM,45.0,25.0,46,30.19,10.0,ENE,6.9,-,N/A,,Clear,70,2013-12-09 10:53:00
3:53 AM,42.1,26.1,53,30.19,10.0,East,4.6,-,N/A,,Clear,90,2013-12-09 11:53:00
4:53 AM,39.0,28.0,65,30.19,10.0,Calm,Calm,-,N/A,,Clear,0,2013-12-09 12:53:00
5:53 AM,37.9,28.9,70,30.21,10.0,Calm,Calm,-,N/A,,Clear,0,2013-12-09 13:53:00
6:53 AM,37.9,28.0,68,30.23,10.0,Calm,Calm,-,N/A,,Clear,0,2013-12-09 14:53:00
7:53 AM,43.0,30.0,60,30.25,10.0,Calm,Calm,-,N/A,,Clear,0,2013-12-09 15:53:00
8:53 AM,50.0,30.0,46,30.27,10.0,Calm,Calm,-,N/A,,Clear,0,2013-12-09 16:53:00
9:38 AM,55.4,23.0,29,30.26,9.0,WNW,8.1,-,N/A,,Mostly Cloudy,300,2013-12-09 17:38:00
9:53 AM,54.0,30.0,40,30.27,10.0,Calm,Calm,-,N/A,,Mostly Cloudy,0,2013-12-09 17:53:00
10:10 AM,55.4,30.2,38,30.27,9.0,WNW,4.6,-,N/A,,Scattered Clouds,300,2013-12-09 18:10:00
10:21 AM,55.4,32.0,41,30.27,9.0,NW,4.6,-,N/A,,Mostly Cloudy,310,2013-12-09 18:21:00
10:53 AM,55.9,30.0,37,30.26,9.0,WNW,5.8,-,N/A,,Overcast,300,2013-12-09 18:53:00
11:51 AM,59.0,26.6,29,30.24,7.0,NNW,6.9,-,N/A,,Clear,330,2013-12-09 19:51:00
11:53 AM,57.9,26.1,30,30.24,7.0,NW,4.6,-,N/A,,Clear,320,2013-12-09 19:53:00
12:00 PM,59.0,26.6,29,30.23,7.0,North,4.6,-,N/A,,Overcast,360,2013-12-09 20:00:00
12:46 PM,60.8,21.2,22,30.23,8.0,Calm,Calm,-,N/A,,Clear,0,2013-12-09 20:46:00
12:53 PM,61.0,21.0,21,30.23,8.0,Calm,Calm,-,N/A,,Clear,0,2013-12-09 20:53:00
1:53 PM,63.0,17.1,17,30.22,10.0,Variable,6.9,-,N/A,,Clear,0,2013-12-09 21:53:00
2:53 PM,63.0,3.9,10,30.23,10.0,East,11.5,-,N/A,,Clear,100,2013-12-09 22:53:00
3:53 PM,61.0,1.9,9,30.24,10.0,East,8.1,-,N/A,,Clear,90,2013-12-09 23:53:00
4:53 PM,57.9,1.9,10,30.25,10.0,NE,5.8,-,N/A,,Clear,50,2013-12-10 00:53:00
5:53 PM,55.0,3.9,13,30.26,10.0,ENE,6.9,-,N/A,,Clear,70,2013-12-10 01:53:00
6:53 PM,53.1,1.9,12,30.27,10.0,ENE,4.6,-,N/A,,Clear,70,2013-12-10 02:53:00
7:53 PM,54.0,-4.0,9,30.28,10.0,NE,4.6,-,N/A,,Clear,40,2013-12-10 03:53:00
8:53 PM,51.1,-0.9,12,30.28,10.0,ENE,4.6,-,N/A,,Clear,70,2013-12-10 04:53:00
9:53 PM,51.1,-0.0,12,30.27,10.0,ENE,6.9,-,N/A,,Clear,60,2013-12-10 05:53:00
10:53 PM,51.1,-0.0,12,30.27,10.0,East,11.5,-,N/A,,Clear,80,2013-12-10 06:53:00
11:53 PM,53.1,-2.0,10,30.26,10.0,ENE,6.9,-,N/A,,Clear,60,2013-12-10 07:53:00